#timestamp,LO_Frequency,Hit 
1501455615.7,286046968.7,N
1501455635.6,286046968.7,N
1501455655.4,286046967.4,N
1501455675.2,286046966.6,N
1501455695.0,286046968.7,N
1501455695.9,286046968.7,N
1501455715.8,286046968.9,N
1501455735.6,286046967.7,N
1501455755.4,286046966.9,N
1501455775.3,286046967.9,N
1501455795.1,286046968.6,N
1501455815.8,286046966.2,N
1501455835.7,286046970.3,N
1501455855.5,286046970.4,N
1501455875.3,286046969.2,N
1501455895.2,286046966.8,N
1501455915.9,286046967.8,N
1501455935.7,286046970.2,N
1501455955.5,286046973.2,N
1501455975.4,286046976.4,N
1501455995.2,286046976.3,N
1501456015.0,286046974.5,N
1501456015.9,286046974.5,N
1501456035.8,286046978.7,N
1501456055.6,286046978.9,N
1501456075.4,286046981.3,N
1501456095.3,286046982.7,N
1501456115.1,286046984.0,N
1501456116.0,286046984.0,N
1501456135.8,286046985.7,N
1501456155.7,286046986.0,N
1501456175.5,286046985.8,N
1501456195.3,286046985.8,N
1501456215.2,286046988.1,N
1501456235.9,286046988.1,N
1501456255.7,286046984.9,N
1501456275.5,286046985.4,N
1501456295.4,286046984.9,N
1501456315.2,286046983.8,N
1501456335.0,286046984.0,N
1501456335.9,286046984.0,N
1501456355.8,286046985.9,N
1501456375.6,286046985.4,N
1501456395.4,286046982.9,N
1501456415.3,286046986.4,N
1501456435.1,286046980.5,N
1501456436.0,286046980.5,N
1501456455.8,286046979.4,N
1501456475.7,286046981.3,N
1501456495.5,286046979.0,N
1501456515.3,286046979.8,N
1501456535.2,286046976.4,N
1501456555.9,286046976.2,N
1501456575.7,286046979.9,N
1501456595.5,286046980.1,N
1501456615.4,286046975.8,N
1501456635.2,286046980.1,N
1501456655.0,286046978.7,N
1501456655.9,286046978.7,N
1501456675.8,286046978.5,N
1501456695.6,286046978.2,N
1501456715.4,286046980.4,N
1501456735.3,286046981.3,N
1501456755.1,286046978.9,N
1501456756.0,286046978.9,N
1501456775.8,286046978.7,N
1501456795.7,286046976.1,N
1501456815.5,286046975.8,N
1501456835.3,286046978.8,N
1501456855.1,286046976.7,N
1501456875.9,286046976.5,N
1501456895.7,286046976.4,N
1501456915.5,286046976.6,N
1501456935.4,286046976.7,N
1501456955.2,286046977.0,N
1501456975.0,286046977.0,N
1501456975.9,286046977.0,N
1501456995.8,286046976.4,N
1501457015.6,286046976.7,N
1501457035.4,286046976.9,N
1501457055.3,286046975.8,N
1501457075.1,286046976.4,N
1501457076.0,286046976.4,N
1501457095.8,286046975.7,N
1501457115.7,286046977.0,N
1501457135.5,286046976.7,N
1501457155.3,286046978.6,N
1501457175.1,286046978.7,N
1501457195.9,286046978.4,N
1501457215.7,286046978.3,N
1501457235.5,286046977.9,N
1501457255.4,286046978.8,N
1501457275.2,286046978.7,N
1501457295.0,286046976.9,N
1501457295.9,286046976.9,N
1501457315.8,286046975.9,N
1501457335.6,286046975.8,N
1501457355.4,286046975.9,N
1501457375.3,286046976.7,N
1501457395.1,286046974.1,N
1501457396.0,286046974.1,N
1501457415.8,286046976.1,N
1501457435.6,286046975.8,N
1501457455.5,286046978.1,N
1501457475.3,286046977.7,N
1501457495.1,286046978.4,N
1501457515.9,286046977.4,N
1501457535.7,286046979.6,N
1501457555.5,286046977.4,N
1501457575.4,286046979.3,N
1501457595.2,286046981.3,N
1501457615.0,286046979.5,N
1501457615.9,286046979.5,N
1501457635.8,286046977.5,N
1501457655.6,286046978.2,N
1501457675.4,286046977.6,N
1501457695.3,286046980.1,N
1501457715.1,286046977.6,N
1501457716.0,286046977.6,N
1501457735.8,286046980.0,N
1501457755.6,286046977.5,N
1501457775.5,286046980.4,N
1501457795.3,286046980.3,N
1501457815.1,286046980.0,N
1501457835.9,286046979.3,N
1501457855.7,286046982.0,N
1501457875.5,286046980.5,N
1501457895.4,286046980.8,N
1501457915.2,286046981.8,N
1501457935.0,286046979.7,N
1501457935.9,286046979.7,N
1501457955.8,286046981.7,N
1501457975.6,286046980.7,N
1501457995.4,286046982.7,N
1501458015.2,286046983.0,N
1501458035.1,286046983.0,N
1501458036.0,286046983.0,N
1501458055.8,286046982.5,N
1501458075.6,286046982.2,N
1501458095.5,286046982.5,N
1501458115.3,286046982.3,N
1501458135.1,286046982.7,N
1501458155.9,286046983.4,N
1501458175.7,286046982.9,N
1501458195.5,286046981.4,N
1501458215.4,286046981.9,N
1501458235.2,286046981.8,N
1501458255.0,286046982.9,N
1501458255.9,286046982.9,N
1501458275.8,286046984.5,N
1501458295.6,286046983.7,N
1501458315.4,286046984.4,N
1501458335.2,286046984.8,N
1501458355.1,286046982.2,N
1501458356.0,286046982.2,N
1501458375.8,286046984.6,N
1501458395.6,286046986.1,N
1501458415.5,286046987.5,N
1501458435.3,286046987.6,N
1501458455.1,286046988.1,N
1501458475.9,286046987.6,N
1501458495.7,286046988.2,N
1501458515.5,286046985.3,N
1501458535.4,286046988.1,N
1501458555.2,286046985.5,N
1501458575.0,286046988.3,N
1501458575.9,286046988.3,N
1501458595.8,286046988.2,N
1501458615.6,286046985.4,N
1501458635.4,286046986.3,N
1501458655.2,286046983.9,N
1501458675.1,286046984.6,N
1501458676.0,286046984.6,N
1501458695.8,286046983.7,N
1501458715.6,286046985.4,N
1501458735.5,286046987.0,N
1501458755.3,286046989.6,N
1501458775.1,286046989.0,N
1501458795.9,286046991.5,N
1501458815.7,286046992.9,N
1501458835.5,286046995.7,N
1501458855.4,286046999.5,N
1501458875.2,286046998.6,N
1501458895.0,286046998.4,N
1501458895.9,286046998.4,N
1501458915.7,286046999.1,N
1501458935.6,286046998.6,N
1501458955.4,286046996.6,N
1501458975.2,286046997.4,N
1501458995.1,286046999.1,N
1501458996.0,286046999.1,N
1501459015.8,286046998.3,N
1501459035.6,286047001.0,N
1501459055.5,286047000.0,N
1501459075.3,286047004.3,N
1501459095.1,286047003.7,N
1501459115.9,286047002.1,N
1501459135.7,286046998.1,N
1501459155.5,286047002.5,N
1501459175.4,286047003.7,N
1501459195.2,286047001.5,N
